Location: Unspecified
(0.0000°N, 0.0000°E)
Time: 23:38:29
(UTC+00:00)

Courier 1B Rocket - All Passes

Search period start: 16 October 2017 00:00
Search period end: 26 October 2017 00:00
Orbit: 921 x 1202 km, 28.2° (Epoch: 16 October)

Date Brightness Start Highest point End Pass type
(mag) Time Alt. Az. Time Alt. Az. Time Alt. Az.
16 Oct - 01:56:34 10° WSW 02:00:56 16° SSW 02:05:15 10° SSE visible
16 Oct - 07:45:30 10° S 07:48:29 13° SSE 07:51:24 10° SE daylight
16 Oct - 09:36:28 10° SW 09:42:39 43° SSE 09:48:33 10° E daylight
16 Oct - 11:29:58 10° WSW 11:36:03 49° NNW 11:42:03 10° NE daylight
16 Oct - 13:26:59 10° NW 13:29:54 13° NNW 13:32:50 10° N daylight
16 Oct - 19:14:05 10° N 19:16:49 12° NNE 19:19:37 10° NE visible
16 Oct - 21:04:22 10° NW 21:11:11 39° NNE 21:18:20 10° E visible
16 Oct - 22:57:29 10° WNW 23:05:04 67° SSW 23:12:53 10° SE night (unlit)
17 Oct - 00:53:31 10° WSW 00:59:19 22° SSW 01:05:06 10° SSE night (unlit)
17 Oct - 08:35:47 10° SSW 08:41:31 29° SSE 08:46:56 10° E daylight
17 Oct - 10:28:36 10° WSW 10:35:05 77° NNW 10:41:19 10° NE daylight
17 Oct - 12:24:10 10° WNW 12:28:38 20° NNW 12:33:06 10° NNE daylight
17 Oct - 20:03:58 10° NNW 20:09:52 27° NNE 20:16:02 10° E visible
17 Oct - 21:56:15 10° WNW 22:03:45 86° NNE 22:11:37 10° ESE night (unlit)
17 Oct - 23:51:07 10° W 23:57:47 31° SSW 00:04:34 10° SSE night (unlit)
18 Oct - 01:50:48 10° SSW 01:52:42 11° SSW 01:54:36 10° S visible
18 Oct - 07:35:18 10° SSW 07:40:13 20° SSE 07:44:55 10° ESE daylight
18 Oct - 09:27:27 10° SW 09:34:05 69° SSE 09:40:22 10° ENE daylight
18 Oct - 11:22:00 10° W 11:27:32 31° NNW 11:32:56 10° NNE daylight
18 Oct - 19:03:56 10° NNW 19:08:28 18° NNE 19:13:11 10° ENE visible
18 Oct - 20:55:20 10° NW 21:02:28 59° NNE 21:10:03 10° ESE visible
18 Oct - 22:49:12 10° W 22:56:21 45° SSW 23:03:47 10° SE night (unlit)
19 Oct - 00:46:36 10° SW 00:50:56 16° SSW 00:55:16 10° SSE night (unlit)
19 Oct - 06:35:05 10° S 06:38:46 14° SSE 06:42:19 10° SE daylight
19 Oct - 08:26:29 10° SW 08:33:01 45° SSE 08:39:08 10° E daylight
19 Oct - 10:20:12 10° WSW 10:26:29 48° NNW 10:32:30 10° NE daylight
19 Oct - 12:17:34 10° NW 12:20:18 13° NNW 12:23:02 10° N daylight
19 Oct - 18:04:48 10° N 18:07:00 12° NNE 18:09:16 10° NE visible
19 Oct - 19:54:43 10° NW 20:01:14 39° NNE 20:08:10 10° E visible
19 Oct - 21:47:43 10° WNW 21:55:01 65° SSW 22:02:44 10° SE night (unlit)
19 Oct - 23:43:39 10° WSW 23:49:17 22° SSW 23:55:01 10° SSE night (unlit)
20 Oct - 05:35:48 10° S 05:37:08 10° SSE 05:38:26 10° SSE daylight
20 Oct - 07:25:41 10° SSW 07:31:49 31° SSE 07:37:35 10° E daylight
20 Oct - 09:18:42 10° WSW 09:25:29 75° NNW 09:31:50 10° NE daylight
20 Oct - 11:14:31 10° WNW 11:19:03 20° NNW 11:23:30 10° NNE daylight
20 Oct - 18:54:24 10° NNW 18:59:58 26° NNE 19:05:52 10° E visible
20 Oct - 20:46:34 10° WNW 20:53:45 87° NNE 21:01:26 10° ESE visible
20 Oct - 22:41:20 10° W 22:47:45 30° SSW 22:54:25 10° SSE night (unlit)
21 Oct - 00:41:00 10° SSW 00:42:44 11° SSW 00:44:29 10° S night (unlit)
21 Oct - 06:25:03 10° SSW 06:30:28 22° SSE 06:35:37 10° ESE daylight
21 Oct - 08:17:26 10° SW 08:24:26 72° SSE 08:30:55 10° ENE daylight
21 Oct - 10:12:12 10° W 10:17:55 31° NNW 10:23:24 10° NNE daylight
21 Oct - 17:54:29 10° NNW 17:58:41 17° NNE 18:03:03 10° ENE daylight
21 Oct - 19:45:43 10° NW 19:52:32 59° NNE 19:59:52 10° ESE visible
21 Oct - 21:39:30 10° W 21:46:20 43° SSW 21:53:35 10° SE visible
21 Oct - 23:36:51 10° SW 23:40:56 15° SSW 23:45:05 10° SSE night (unlit)
22 Oct - 05:24:40 10° SSW 05:28:57 16° SSE 05:33:05 10° ESE daylight
22 Oct - 07:16:22 10° SW 07:23:18 48° SSE 07:29:43 10° ENE daylight
22 Oct - 09:10:17 10° WSW 09:16:51 48° NNW 09:23:01 10° NE daylight
22 Oct - 11:07:52 10° NW 11:10:42 13° NNW 11:13:29 10° N daylight
22 Oct - 16:55:40 10° N 16:57:17 11° NNE 16:58:55 10° NE daylight
22 Oct - 18:45:10 10° NW 18:51:23 39° NNE 18:58:01 10° E visible
22 Oct - 20:38:05 10° WNW 20:45:03 63° SSW 20:52:32 10° SE visible
22 Oct - 22:33:58 10° WSW 22:39:17 21° SSW 22:44:48 10° SSE night (unlit)
23 Oct - 04:24:48 10° S 04:27:16 12° SSE 04:29:41 10° SE visible
23 Oct - 06:15:28 10° SW 06:22:01 33° SSE 06:28:09 10° E daylight
23 Oct - 08:08:41 10° WSW 08:15:48 74° NNW 08:22:22 10° NE daylight
23 Oct - 10:04:41 10° WNW 10:09:26 20° NNW 10:14:00 10° NNE daylight
23 Oct - 17:44:54 10° NNW 17:50:13 25° NNE 17:55:47 10° E daylight
23 Oct - 19:37:00 10° WNW 19:43:51 89° NE 19:51:16 10° ESE visible
23 Oct - 21:31:44 10° W 21:37:47 29° SSW 21:44:10 10° SSE visible
23 Oct - 23:31:49 10° SSW 23:32:47 10° SSW 23:33:44 10° S night (unlit)
24 Oct - 05:14:46 10° SSW 05:20:36 24° SSE 05:26:11 10° ESE visible
24 Oct - 07:07:19 10° SW 07:14:40 75° SSE 07:21:28 10° ENE daylight
24 Oct - 09:02:14 10° W 09:08:15 31° NNW 09:13:56 10° NNE daylight
24 Oct - 16:45:03 10° NNW 16:48:58 17° NNE 16:53:00 10° ENE daylight
24 Oct - 18:36:13 10° NW 18:42:43 60° NNE 18:49:45 10° ESE visible
24 Oct - 20:29:57 10° W 20:36:25 41° SSW 20:43:21 10° SE visible
24 Oct - 22:27:21 10° SW 22:31:00 14° SSW 22:34:44 10° S night (unlit)
25 Oct - 04:14:17 10° SSW 04:19:03 17° SSE 04:23:41 10° ESE visible
25 Oct - 06:06:10 10° SW 06:13:27 51° SSE 06:20:14 10° ENE daylight
25 Oct - 08:00:14 10° WSW 08:07:07 48° NNW 08:13:32 10° NE daylight
25 Oct - 09:57:56 10° NW 10:01:02 13° NNW 10:04:05 10° N daylight
25 Oct - 15:46:33 10° NNE 15:47:38 10° NNE 15:48:42 10° NNE daylight
25 Oct - 17:35:41 10° NW 17:41:38 38° NNE 17:47:58 10° E daylight
25 Oct - 19:28:34 10° WNW 19:35:11 60° SSW 19:42:20 10° SE visible
25 Oct - 21:24:29 10° WSW 21:29:22 19° SSW 21:34:29 10° SSE visible
